Regional Weather Roundup
Issued by NWS Boston, MA

Home | Current Version | Previous Version | Text Only | Print | Product List | Glossary On
Versions: 1 2 3 4 5 6 7 8 9 10 11 12 13 14 15 16 17 18 19 20 21 22 23 24 25 26 27 28
000
ASUS41 KBOX 040810
RWRBOX

REGIONAL WEATHER ROUNDUP
NATIONAL WEATHER SERVICE TAUNTON MA
400 AM EDT WED MAY 04 2016

NOTE:  "FAIR" INDICATES FEW OR NO CLOUDS BELOW 12,000 FEET WITH NO
SIGNIFICANT WEATHER AND/OR OBSTRUCTIONS TO VISIBILITY.  THE FOLLOWING
OBSERVATION LOCATIONS DO NOT REPORT PRESENT WEATHER...PROVINCETOWN...
SMITHFIELD...BLOCK ISLAND...KEENE...AND OXFORD.

MAZALL-040900-
EASTERN MASSACHUSETTS

CITY           SKY/WX    TMP DP  RH WIND       PRES   REMARKS
BOSTON         CLOUDY    46  42  86 NE7       29.86S
BEVERLY        CLOUDY    44  42  93 CALM      29.86R
LAWRENCE       CLOUDY    45  41  86 NE3       29.88R
BEDFORD        CLOUDY    45  43  93 NE3       29.85R
BLUE HILL        N/A     42  42 100 E7        29.83S
NORWOOD        CLOUDY    46  42  86 CALM      29.85S
MARSHFIELD     CLOUDY    46  43  87 NE6       29.87S
PLYMOUTH       CLOUDY    45  43  93 NE5       29.85S
TAUNTON        CLOUDY    47  42  83 CALM      29.84S
NEW BEDFORD    CLOUDY    45  42  89 NE7       29.83S
$$

MAZALL-040900-
CAPE COD AND THE ISLANDS

CITY           SKY/WX    TMP DP  RH WIND       PRES   REMARKS
FALMOUTH       CLOUDY    45  43  93 NE9       29.84S
HYANNIS        CLOUDY    44  42  93 NE6       29.83S
CHATHAM        CLOUDY    45  43  93 NE8       29.86R
PROVINCETOWN   CLOUDY    44  42  93 NE7       29.86R
NANTUCKET      CLOUDY    47  43  86 NE13      29.82F
MARTHAS VNYRD  CLOUDY    47  43  86 NE9       29.83R
$$

MAZALL-040900-
CENTRAL AND WESTERN MASSACHUSETTS

CITY           SKY/WX    TMP DP  RH WIND       PRES   REMARKS
WORCESTER      CLOUDY    43  41  93 NE3       29.83F
FITCHBURG      CLOUDY    47  41  80 CALM      29.86R
ORANGE         CLOUDY    45  44  97 CALM      29.84R
SPRINGFIELD    CLOUDY    46  43  88 N3        29.82S
WESTFIELD      CLOUDY    48  44  86 N3        29.83R
NORTH ADAMS    CLOUDY    48  44  86 E6        29.82R
PITTSFIELD     CLOUDY    46  45  96 CALM      29.80R
$$

RIZALL-040900-
RHODE ISLAND

CITY           SKY/WX    TMP DP  RH WIND       PRES   REMARKS
PROVIDENCE     CLOUDY    46  41  82 NE6       29.84S
NEWPORT        CLOUDY    46  42  86 NE6       29.82F
BLOCK ISLAND   CLOUDY    46  44  93 NE10      29.83R
SMITHFIELD       N/A     45  39  81 NE6       29.83S
WESTERLY       CLOUDY    47  42  83 NE5       29.83R
$$

CTZALL-040900-
CONNECTICUT

CITY           SKY/WX    TMP DP  RH WIND       PRES   REMARKS
BRADLEY INTL   CLOUDY    49  43  80 NE3       29.82F
HARTFORD       CLOUDY    51  43  74 NE5       29.82F
BRIDGEPORT     CLOUDY    50  47  89 N3        29.82S
DANBURY        LGT RAIN  48  46  93 E6        29.82S FOG
GROTON         CLOUDY    48  46  93 NE7       29.82S
NEW HAVEN      CLOUDY    49  47  93 NE3       29.81F
CHESTER        CLOUDY    46  43  87 NE6       29.81F
MERIDEN        CLOUDY    50  42  74 NE5       29.82F
WILLIMANTIC    CLOUDY    49  42  77 NE6       29.83F
OXFORD           N/A     46  43  87 CALM      29.82F
$$

MEZ002-015-021-024-NHZ003-005-008-011-012-014-VTZ005-008-040900-
NORTHERN NEW ENGLAND

CITY           SKY/WX    TMP DP  RH WIND       PRES   REMARKS
PORTLAND ME    PTCLDY    43  40  89 E6        29.87F
BANGOR ME      CLOUDY    48  42  80 N7        29.88F
CONCORD NH     CLOUDY    45  40  82 CALM      29.86R
MANCHESTER NH  MOCLDY    46  40  79 CALM      29.85R
NASHUA NH      CLOUDY    46  42  86 CALM      29.86S
PORTSMOUTH NH  CLOUDY    41  39  93 N1        29.86R
JAFFREY NH     CLOUDY    44  41  89 CALM      29.83S
KEENE NH       CLOUDY    45  45 100 CALM      29.84S
BURLINGTON VT  CLOUDY    44  38  79 CALM      29.81R
MT. WASHINGTON MOCLDY    32  14  47 W8          N/A  WCI  25
$$

NYZ052-076-040900-
EASTERN NEW YORK

CITY           SKY/WX    TMP DP  RH WIND       PRES   REMARKS
ALBANY         DRZL/FOG  49  47  93 CALM      29.82R VSB 1
NEW YORK CITY  CLOUDY    51  49  92 E5        29.80F
$$

ANZALL-040900-
MARINE OBSERVATIONS

STATION/POSITION TIME  TEMP    WIND        PRES    VSBY  WAVE
                       AIR SEA DIR/SP/G                  HT/PER
                 (UTC) (F)     (DEG/KT/KT) (MB)    (MI)  (FT/S)
BOSTON BUOY      0750   46 47   50/  6/  8 1010.6R         2/ 9
BUZZARDS BAY     0800   46      60/ 14/ 15 1010.6S
NANTUCKET SOUND  0750   46 48   40/ 14/ 16 1010.1F         1/ 3
MASS BAY-STELLWA 0704   45 46                N/A    1 7/8  2/ 9
ISLE OF SHOALS   0800   45      40/  4/  5 1011.3R
S OF BLOCK IS    NOT AVBL
$$

......................KEY.........................
  SKY/WX - SKY CONDITION/PRESENT WEATHER
  TMP    - TEMPERATURE IN FAHRENHEIT
  DWPT   - DEWPOINT IN FAHRENHEIT
  RH     - RELATIVE HUMIDITY IN PERCENT
  WIND   - DIRECTION AND SPEED IN MPH
  PRES   - MEAN SEA LEVEL PRESSURE IN INCHES OF HG
  WCI    - WIND CHILL INDEX
  VSB    - VISIBILITY IN MILES
  HX     - HEAT INDEX
  TC     - TEMPERATURE IN CELSIUS
  VRB    - VARIABLE WIND DIRECTION
  N/A    - NOT AVAILABLE




USA.gov is the U.S. government's official web portal to all federal, state and local government web resources and services.